Find Starlink 34310

NORAD ID: 64210 Int'l Des: 2025-117 Owner: SPXS Country: US Constellation: starlink operational
LEOCIRCULAR

实时位置

正在加载3D地球...

关于 Starlink 34310

正在加载描述...

即将过境

Passes for default location (London). Set your location on the main map for personalized predictions.

高度历史

Loading altitude history...

两行轨道根数

1 64210U 25117H 26104.77285225 .00019813 00000-0 67936-3 0 9996
2 64210 53.1584 231.7563 0001039 61.3769 298.7336 15.30196849 50057
Epoch: Apr 14, 2026 • Age: 16 hours

当前状态

高度 474.9 km
速度 7.63 km/s
星下点 16.39°N, 116.93°W
发射日期 May 31, 2025
运行时间 0.8 years
类型 internet

技术详情

分类 Payload
质量 575.00 kg
干质量 530.00 kg
总质量 575.00 kg
长度 0.30 m
直径 4.10 m
跨度 29.00 m
形状 Box + pan
制造商 SPXS
平台类型 Starlink V2MO
阶段状态 In Orbit
所有者/国家 SPXS/US

Most Searched